Weather in Gorodishchi

Russia / Vladimir Oblast     55°52′02″N   39°05′11″E
temp.,
°C
wind,
m/s
gust,
m/s
humid.,
%
clouds,
%
prec.,
mm/h
press.,
hPa
HPBL,
m
21 january, fri
fri2100:00−7s61392100 0.1 1004522
03:00−7s61395100 0.9 1003511
06:00−7sse51295100 0.9 1002486
09:00−7sse51295100 1.6 1001519
12:00−6sse51295100 1.0 1000637
15:00−5sse51195100 1.8 999633
18:00−5sse41095100 0.6 999483
21:00−5sse4995100 0.8 1000393
22 january, sat
sat2200:00−7se379564 0.1 1001251
03:00−8se4109489 0.1 1002315
06:00−8se4109599 0.3 1003411
09:00−7se4109499 0.7 1005361
12:00−6se4995100 0.3 1008433
15:00−5se3793100 0.5 1010442
18:00−7ese389584 0.1 1013280
21:00−8ese379696 0.3 1015218
23 january, sun
sun2300:00−10e2497100 0.1 101786
03:00−14e229998 0.1 102012
06:00−16e119985 0.1 102214
09:00−20ene11100100 0.1 102610
12:00−11ene119695 0.1 102897
15:00−10ne119644 0.1 103024
18:00−17ene1110083 0.0 10329
21:00−20nne2210099 0.0 103410
24 january, mon
mon2400:00−22nne22100100 0.0 103613
03:00−22nne23100100 0.0 103729
06:00−20ne24100100 0.0 103659
09:00−19nne25100100 0.1 103774
12:00−10ne3795100 0.1 1036202
15:00−8ne2696100 0.1 1033235
18:00−11ne259867 0.0 103375
21:00−15e2310084 0.0 103231
25 january, tue
tue2500:00−19ene11100100 0.0 10329
03:00−20ese22100100 0.0 103017
06:00−19ese1110085 0.0 102922
09:00−21se1110083 0.0 102815
12:00−11s259392 0.0 1026194
15:00−9sse269499 0.1 1024358
18:00−11sse279773 0.1 1024140
21:00−12sse269884 0.1 1025128